Content
SEND FEEDBACK

Daily
Averages
Monthly
Summary
United States of America

SUNDANCE, WYOMING


Home > North America > United States > Wyoming
Elevation: 4908 feet     Latitude: 44 24N     Longitude: 104 21W

WEATHER
 
SELECT A DAY
Number of Records: 234,099;   Date Range: 1/2/95 - 10/24/14
 
SHARE

PRINT THIS DATA

[ ← Previous Day ]
WEATHER ALMANAC - SEPTEMBER 21, 2013
[ Next Day → ]
[ °C ]   °F
Weather ElementAverageHighLow
Temperature63.3 °F80.6 °F (3:55 pm)44.6 °F (3:35 am)
Dewpoint37.4 °F46.4 °F (6:55 pm)32 °F (12:55 am)
Humidity40.4 %66 % (3:35 am)24 % (2:35 pm)
Barometer29.80 in29.93 in (12:35 am)29.69 in (10:55 pm)
Wind Speed5.6 mph13.8 mph (10:35 pm)
Weather ElementAverage
Visibility10 mi
Wind DirectionESE (122.7 °)

Weather ElementTotal
Precipitation---
Heating Degree Days2.4 (Base 65)
Growing Degree Days12.6 (Base 50)
Averaged from 70 records on September 21, 2013
WEATHER CONDITIONS BREAKOUT
WIND DIRECTION BREAKOUT
WEATHER BY HOUR - SEPTEMBER 21, 2013
[ °C ]   °F
Local TimeTemperatureDewpointHumidityBarometerVisibilityWind DirectionWind SpeedGust SpeedPrecipitationEventsConditions
12:35 AM48.2 °F33.8 °F58 %29.93 in10.0 miCalmClear
12:55 AM50.0 °F32.0 °F50 %29.92 in10.0 miNW (320°)3.5 mphClear
1:15 AM50.0 °F32.0 °F50 %29.92 in10.0 miNW (310°)4.6 mphClear
1:35 AM50.0 °F32.0 °F50 %29.92 in10.0 miCalmClear
1:55 AM46.4 °F33.8 °F62 %29.91 in10.0 miSSW (200°)4.6 mphClear
2:15 AM46.4 °F33.8 °F62 %29.90 in10.0 miCalmClear
2:35 AM46.4 °F32.0 °F57 %29.89 in10.0 miEast (100°)3.5 mphClear
2:55 AM46.4 °F33.8 °F62 %29.88 in10.0 miCalmClear
3:15 AM48.2 °F32.0 °F54 %29.87 in10.0 miCalmClear
3:35 AM44.6 °F33.8 °F66 %29.87 in10.0 miCalmClear
4:15 AM46.4 °F33.8 °F62 %29.86 in10.0 miSSW (210°)4.6 mphClear
4:35 AM44.6 °F32.0 °F61 %29.85 in10.0 miSW (220°)5.8 mphClear
4:55 AM44.6 °F32.0 °F61 %29.85 in10.0 miSSW (200°)3.5 mphClear
5:15 AM46.4 °F32.0 °F57 %29.84 in10.0 miSSW (200°)4.6 mphClear
5:35 AM46.4 °F32.0 °F57 %29.84 in10.0 miSW (230°)6.9 mphClear
5:55 AM46.4 °F32.0 °F57 %29.84 in10.0 miCalmClear
6:15 AM48.2 °F32.0 °F54 %29.84 in10.0 miNW (320°)4.6 mphClear
6:35 AM48.2 °F32.0 °F54 %29.84 in10.0 miCalmClear
6:55 AM46.4 °F32.0 °F57 %29.83 in10.0 miSE (140°)3.5 mphClear
7:15 AM46.4 °F32.0 °F57 %29.83 in10.0 miSSE (150°)5.8 mphClear
7:35 AM53.6 °F32.0 °F44 %29.83 in10.0 miSW (220°)5.8 mphClear
7:55 AM55.4 °F32.0 °F41 %29.84 in10.0 miCalmClear
8:15 AM59.0 °F37.4 °F45 %29.84 in10.0 miSouth (170°)4.6 mphClear
8:35 AM62.6 °F37.4 °F39 %29.84 in10.0 miSSW (210°)3.5 mphClear
8:55 AM64.4 °F33.8 °F32 %29.84 in10.0 miCalmClear
9:15 AM66.2 °F39.2 °F37 %29.84 in10.0 miCalmClear
9:35 AM66.2 °F39.2 °F37 %29.84 in10.0 miNorth (350°)3.5 mphClear
9:55 AM64.4 °F39.2 °F40 %29.85 in10.0 miWest (270°)4.6 mphClear
10:15 AM66.2 °F39.2 °F37 %29.84 in10.0 miWest (270°)5.8 mphClear
10:35 AM68.0 °F39.2 °F35 %29.84 in10.0 miNW (320°)3.5 mphClear
10:55 AM71.6 °F37.4 °F29 %29.84 in10.0 miCalmClear
11:15 AM71.6 °F37.4 °F29 %29.83 in10.0 miCalmClear
11:35 AM73.4 °F37.4 °F27 %29.83 in10.0 miNE (40°)6.9 mphClear
11:55 AM73.4 °F41.0 °F31 %29.82 in10.0 miNE (40°)9.2 mphClear
12:15 PM73.4 °F41.0 °F31 %29.82 in10.0 miNE (40°)9.2 mphClear
12:35 PM73.4 °F42.8 °F33 %29.82 in10.0 miNE (50°)10.4 mphClear
12:55 PM73.4 °F44.6 °F36 %29.82 in10.0 miENE (60°)8.1 mphClear
1:15 PM73.4 °F44.6 °F36 %29.82 in10.0 miENE (60°)9.2 mphClear
1:35 PM73.4 °F41.0 °F31 %29.81 in10.0 miNE (50°)8.1 mphClear
1:55 PM75.2 °F41.0 °F29 %29.80 in10.0 miEast (80°)8.1 mphClear
2:15 PM77.0 °F39.2 °F26 %29.80 in10.0 miENE (70°)5.8 mphClear
2:35 PM77.0 °F37.4 °F24 %29.79 in10.0 miENE (60°)8.1 mphClear
2:55 PM77.0 °F39.2 °F26 %29.78 in10.0 miEast (80°)8.1 mphClear
3:15 PM78.8 °F41.0 °F26 %29.77 in10.0 miENE (70°)9.2 mphClear
3:35 PM78.8 °F42.8 °F28 %29.77 in10.0 miEast (80°)5.8 mphClear
3:55 PM80.6 °F41.0 °F24 %29.76 in10.0 miEast (90°)5.8 mphClear
4:15 PM80.6 °F41.0 °F24 %29.75 in10.0 miEast (90°)6.9 mphClear
4:35 PM80.6 °F41.0 °F24 %29.75 in10.0 miESE (110°)5.8 mphClear
4:55 PM80.6 °F41.0 °F24 %29.75 in10.0 miEast (100°)8.1 mphClear
5:15 PM80.6 °F41.0 °F24 %29.75 in10.0 miEast (90°)8.1 mphClear
5:35 PM78.8 °F42.8 °F28 %29.74 in10.0 miESE (110°)8.1 mphClear
5:55 PM77.0 °F41.0 °F28 %29.74 in10.0 miESE (110°)6.9 mphClear
6:15 PM75.2 °F44.6 °F34 %29.73 in10.0 miESE (110°)9.2 mphClear
6:35 PM73.4 °F44.6 °F36 %29.73 in10.0 miESE (120°)9.2 mphClear
6:55 PM68.0 °F46.4 °F46 %29.72 in10.0 miSE (130°)10.4 mphClear
7:15 PM64.4 °F42.8 °F45 %29.72 in10.0 miSSE (150°)6.9 mphClear
7:35 PM62.6 °F42.8 °F48 %29.71 in10.0 miCalmClear
7:55 PM62.6 °F41.0 °F45 %29.72 in10.0 miSE (140°)3.5 mphClear
8:15 PM62.6 °F39.2 °F42 %29.72 in10.0 miESE (120°)6.9 mphClear
8:35 PM66.2 °F39.2 °F37 %29.72 in10.0 miSE (140°)3.5 mphClear
8:55 PM66.2 °F37.4 °F35 %29.71 in10.0 miCalmClear
9:15 PM66.2 °F37.4 °F35 %29.71 in10.0 miSSW (210°)5.8 mphClear
9:35 PM66.2 °F37.4 °F35 %29.70 in10.0 miSSW (200°)4.6 mphClear
9:55 PM64.4 °F37.4 °F37 %29.70 in10.0 miSSW (200°)10.4 mphClear
10:15 PM66.2 °F35.6 °F32 %29.70 in10.0 miSSW (210°)12.7 mphClear
10:35 PM66.2 °F35.6 °F32 %29.70 in10.0 miSouth (190°)13.8 mphClear
10:55 PM66.2 °F35.6 °F32 %29.69 in10.0 miSouth (190°)13.8 mphClear
11:15 PM64.4 °F35.6 °F34 %29.69 in10.0 miSouth (190°)13.8 mphClear
11:35 PM64.4 °F35.6 °F34 %29.69 in10.0 miSSW (200°)13.8 mphClear
11:55 PM62.6 °F35.6 °F37 %29.69 in10.0 miSSW (200°)13.8 mphClear
Hourly data recorded from KSPF, located miles away from Sundance, Wyoming







STORIES FROM OUR PARTNERS